Location: Éclaibes
(50.2028°N, 3.9323°E)
Time: 02:02:19
(UTC+00:00)

Daily predictions for brighter satellites

Satellite Brightness Start Highest point End
(mag) Time Altitude Azimuth Time Altitude Azimuth Time Altitude Azimuth
USA 234 4.4 03:06:37 10° ENE 03:10:26 37° NE 03:10:26 37° NE
USA 59 Rocket 3.0 03:34:44 12° ESE 03:34:44 12° ESE 03:35:04 10° ESE
NOSS 3-1 (C) 4.4 03:34:05 51° NNE 03:34:15 51° NE 03:42:19 10° ESE
Cosmos 1833 Rocket 4.5 03:46:20 23° NNE 03:46:20 23° NNE 03:48:22 10° NNE
ACS3 Solar Sail 4.1 03:40:08 10° N 03:40:27 12° N 03:40:27 12° N
SL-16 R/B 3.8 03:46:48 26° NNE 03:47:41 27° NE 03:52:29 10° E
Cosmos 2082 Rocket 3.6 03:49:32 26° SE 03:51:31 34° ESE 03:56:31 10° NE
COSMOS 2455 3.2 03:58:09 61° E 03:58:09 61° E 04:03:30 10° SE
ATLAS 3B R/B 4.1 03:59:03 29° N 03:59:55 30° N 04:06:40 10° ENE
NOSS 3-4 (A) 4.3 04:02:31 37° NNE 04:02:31 37° NNE 04:06:22 10° NE
NOSS 3-4 (C) 4.3 04:02:40 37° NNE 04:02:40 37° NNE 04:06:33 10° NE
Cosmos 1898 Rocket 4.3 04:02:27 48° E 04:02:27 48° E 04:06:59 10° SE
Cosmos 1980 Rocket 3.5 04:14:14 29° SSE 04:14:14 29° SSE 04:16:54 10° SSE
Cosmos 2369 3.8 04:16:15 73° ESE 04:16:15 73° ESE 04:21:31 10° SSE
COSMO-SKYMED 1 4.0 04:18:30 10° SE 04:22:11 32° ENE 04:22:50 31° NE
Aureole 1 Rocket 4.2 04:20:44 56° NNW 04:22:28 88° WSW 04:29:59 10° SSE
ADEOS Rocket 4.4 04:16:01 10° N 04:20:30 32° NNW 04:20:30 32° NNW
SKYMED 2 4.4 04:20:10 10° SE 04:24:02 48° E 04:24:02 48° E
Cosmos 2180 Rocket 4.4 04:23:52 49° N 04:25:44 89° W 04:32:05 10° S
Cosmos 1937 Rocket 3.9 04:25:55 52° NNE 04:26:39 57° ENE 04:31:41 10° SE
Cosmos 909 Rocket 4.5 04:28:18 53° NW 04:28:18 53° NW 04:34:36 10° NE
Cosmos 372 Rocket 4.2 04:33:38 59° S 04:33:38 59° S 04:37:43 10° SSE
Celestis-02/Orion 38 4.4 04:30:17 10° NNE 04:35:17 86° N 04:35:17 86° N
Cosmos 2333 Rocket 3.3 04:33:56 25° N 04:36:49 42° NE 04:42:15 10° ESE
NOSS 3-1 (A) 4.3 04:37:46 34° NNW 04:40:53 59° NE 04:49:13 10° ESE
Cosmos 1606 Rocket 3.7 04:43:11 73° SE 04:43:11 73° SE 04:47:18 10° SSE
Cosmos 2360 Rocket 3.6 04:40:11 19° N 04:43:30 34° NE 04:48:34 10° ESE
Cosmos 2142 Rocket 4.4 04:47:05 52° NW 04:48:10 60° W 04:54:15 10° S
Cosmos 540 Rocket 4.3 04:56:48 34° NNW 04:56:48 34° NNW 05:00:08 10° NNE
USA 234 3.7 04:49:20 10° ENE 04:55:36 50° N 04:57:47 37° NW
Helios 1A Rocket 3.2 04:53:02 10° SSE 04:55:47 50° ESE 04:55:47 50° ESE
SeaSat 1 4.0 04:56:09 10° NNE 04:58:20 21° N 04:58:20 21° N
Cosmos 2219 Rocket 3.7 04:58:08 14° N 05:02:18 30° NE 05:07:15 10° ESE
SL-4 R/B 2.3 05:03:15 45° ENE 05:03:15 45° ENE 05:05:39 10° E
ATLAS 5 CENTAUR R/B 3.3 05:05:56 14° NNE 05:05:56 14° NNE 05:06:42 10° NNE
Cosmos 2322 Rocket 3.0 05:01:43 19° NNW 05:05:40 50° NE 05:11:11 10° SE
Cosmos 1726 Rocket 3.3 05:08:07 47° NNW 05:09:20 78° W 05:13:34 10° S
Meteor 2-3 Rocket 3.9 05:05:40 10° S 05:11:22 77° E 05:17:05 10° NNE
Cosmos 1092 Rocket 4.5 05:05:18 10° S 05:11:28 61° E 05:17:37 10° NNE
CZ-4 R/B 3.6 05:10:17 10° NNE 05:14:57 85° WNW 05:19:34 10° SSW
Cosmos 489 Rocket 4.4 05:09:08 10° SSW 05:15:27 89° WNW 05:21:46 10° NNE
Nadezhda 4 Rocket 3.9 05:10:09 10° SSW 05:16:26 68° WNW 05:22:43 10° N
NOSS 2-1 (D) 4.1 05:17:47 35° SW 05:17:47 35° SW 05:21:35 10° SSE
Cosmos 1428 Rocket 4.4 05:11:18 10° SSW 05:17:31 78° W 05:23:51 10° N
Cosmos 2237 4.3 05:15:45 37° WNW 05:17:40 55° WSW 05:23:12 10° S
CZ-2C R/B 4.2 05:14:30 10° N 05:16:11 18° NNW 05:16:11 18° NNW
USA 59 Rocket 0.8 05:20:26 31° SW 05:20:26 31° SW 05:24:13 10° S
Cosmos 841 Rocket 3.4 05:18:11 10° SSW 05:23:25 75° WNW 05:28:42 10° NNE
COSMOS 2406 3.2 05:18:17 10° SSW 05:23:57 87° ESE 05:29:40 10° NNE
NOSS 2-1 (E) 3.9 05:25:12 38° SW 05:25:16 38° SW 05:29:29 10° SSE
NOSS 3-1 (C) 4.1 05:21:26 29° WNW 05:25:23 60° SW 05:33:58 10° SSE
Cosmos 1833 Rocket 4.1 05:28:01 20° NNW 05:28:01 20° NNW 05:31:43 10° N
Cosmos 1892 Rocket 3.4 05:25:57 10° SSW 05:30:19 80° W 05:34:45 10° N
Cosmos 2195 Rocket 4.4 05:24:35 10° SSW 05:30:51 77° W 05:37:13 10° N
SL-16 R/B 2.1 05:28:40 23° NW 05:32:19 72° WSW 05:37:56 10° SSE
Cosmos 2082 Rocket 2.4 05:31:29 18° WSW 05:35:26 49° NW 05:40:53 10° NNE
IRS-1D 3.7 05:37:16 10° N 05:42:03 47° WNW 05:46:52 10° SW
COSMOS 2455 3.7 05:41:19 25° W 05:43:02 29° WSW 05:48:07 10° SSW
Cosmos 1898 Rocket 4.4 05:42:42 26° W 05:43:37 28° W 05:48:03 10° SSW
Meteor 2-20 4.4 05:39:04 10° NNW 05:45:04 60° W 05:51:02 10° S
NOSS 8 (A) 4.5 05:45:58 30° NNW 05:47:06 55° NE 05:50:11 10° SE
Orbus 7S? 2.6 05:47:32 38° NW 05:48:21 67° NNE 05:51:04 10° ESE
Cosmos 405 Rocket 3.7 05:45:54 10° SSE 05:48:59 40° E 05:52:05 10° NNE
ATLAS 3B R/B 3.8 05:46:18 14° NW 05:52:45 43° NNE 06:00:00 10° E
Cosmos-2242 2.9 05:49:31 10° NNW 05:53:41 59° W 05:57:49 10° S
Cosmos 1980 Rocket 4.1 05:56:02 10° WSW 05:56:02 10° WSW 05:56:19 10° WSW
Cosmos 2278 3.8 05:51:02 17° NW 05:55:23 56° WSW 06:00:52 10° S
COSMO-SKYMED 1 3.3 05:53:55 10° SSW 05:57:30 29° W 05:59:09 22° WNW
Cosmos 1437 Rocket 4.3 05:55:08 10° N 05:58:14 30° ENE 06:01:19 10° SE
Cosmos 1484 Rocket 2.4 05:57:23 10° N 06:00:46 59° WNW 06:04:06 10° SSW
Cosmos 2058 Rocket 3.3 05:56:32 10° NNW 06:00:49 48° W 06:05:03 10° SSW
Cosmos 1627 Rocket 4.5 05:57:27 10° SSW 06:03:26 56° WNW 06:09:29 10° N
Meteor 2-2 Rocket 4.4 05:58:33 10° NNW 06:04:04 55° W 06:09:41 10° S
Cosmos 1346 Rocket 4.4 06:07:59 15° NW 06:07:59 15° NW 06:09:06 10° NNW
Okean 1 3.3 06:03:39 13° NNW 06:06:36 44° W 06:10:00 10° SSW
Meteor 2-20 Rocket 4.4 06:01:37 10° NNW 06:07:16 55° W 06:12:49 10° S
SL-16 R/B 4.4 06:09:05 10° N 06:10:55 11° NNE 06:12:45 10° NE
CORIOLIS 4.5 06:06:08 10° NNE 06:11:32 71° ESE 06:16:54 10° S
ARIANE 5 R/B 3.4 06:07:44 10° NNE 06:12:52 54° E 06:17:58 10° S
Cosmos 2285 Rocket 4.0 06:07:00 10° NNW 06:13:23 76° WSW 06:19:46 10° SSE
ATLAS 2AS CENTAUR R/B 4.3 06:09:04 10° S 06:15:31 39° ESE 06:21:48 10° NE
SL-08 ROCKET BODY 4.3 06:10:58 10° S 06:16:49 90° W 06:22:42 10° N
SL-08 R/B 4.3 06:13:59 10° SE 06:18:22 47° ENE 06:22:52 10° N
IRIDIUM 104 4.3 06:13:27 10° S 06:18:39 71° W 06:23:54 10° N
Cosmos 2333 Rocket 2.7 06:15:58 11° NW 06:21:08 42° WSW 06:26:30 10° S
SAR-Lupe-4 4.0 06:19:36 10° NNE 06:23:10 67° ESE 06:26:42 10° S
SMAP 3.1 06:19:27 10° NNE 06:24:08 88° WNW 06:28:48 10° SSW
Cosmos 2360 Rocket 2.4 06:22:16 10° NW 06:27:44 53° WSW 06:33:09 10° S
IRIDIUM 114 4.4 06:22:40 10° SSW 06:27:49 60° W 06:33:00 10° N
Helios 1A Rocket 4.5 06:28:18 10° WSW 06:29:17 11° W 06:29:20 11° W
Landsat 7 3.8 06:25:24 10° NNE 06:30:06 87° ESE 06:34:45 10° SSW
Meteor 1-19 Rocket 4.4 06:24:20 10° N 06:30:06 82° ENE 06:36:01 10° SSE
SAR-Lupe-1 4.4 06:27:22 10° NNE 06:30:59 71° ESE 06:34:34 10° S
NOSS 3-1 (A) 4.4 06:25:10 11° NW 06:31:55 50° WSW 06:40:22 10° SSE
CBERS-1 4.1 06:27:47 10° N 06:32:45 54° WNW 06:37:41 10° SW
Cosmos 2026 Rocket 4.5 06:27:40 10° SW 06:33:08 34° WNW 06:38:39 10° N
IGS 5A 3.9 06:29:55 10° N 06:33:36 36° WNW 06:37:17 10° SW
Cosmos 1814 Rocket 4.0 06:29:23 10° SSW 06:34:37 72° WNW 06:39:56 10° NNE
BREEZE-M DEB (TANK) 3.4 06:34:39 10° W 06:36:13 24° SSW 06:38:28 10° SE
Cosmos 2237 Rocket 3.8 06:31:43 10° NNW 06:36:28 27° NE 06:41:12 10° E
USA 234 3.5 06:31:41 10° ESE 06:38:10 68° NNE 06:44:41 10° WNW
SL-4 R/B 1.7 06:36:58 11° WNW 06:40:03 58° SSW 06:43:10 10° ESE
Cosmos 1758 Rocket 3.7 06:36:35 10° SSW 06:40:55 54° WNW 06:45:15 10° N
Cosmos 1733 2.7 06:40:13 10° SW 06:41:43 20° WNW 06:43:14 10° NNW
Cosmos 1743 2.3 06:38:45 10° SSW 06:41:57 58° WNW 06:45:11 10° N
IRS-1C 4.2 06:36:42 10° NNE 06:42:04 87° ESE 06:47:24 10° SSW
Thor Agena Rocket 3.5 06:40:16 10° N 06:45:17 59° WNW 06:50:12 10° SSW
BREEZE-M DEB (TANK) 3.4 06:43:12 10° W 06:46:06 82° S 06:54:31 10° E
Cosmos 2219 Rocket 2.3 06:41:02 10° NW 06:46:38 62° WSW 06:52:10 10° SSE
Cosmos 192 4.4 06:42:02 10° NNW 06:46:57 68° WSW 06:51:48 10° SSE
ATLAS 5 CENTAUR R/B 3.2 06:46:33 10° NNW 06:47:42 11° N 06:48:53 10° NNE
Cosmos 2322 Rocket 3.0 06:44:28 10° NW 06:49:32 34° WSW 06:54:33 10° SSW
S3M 4.0 06:43:59 10° NNW 06:50:13 76° W 06:56:19 10° S
USA 229 4.2 06:48:08 10° NW 06:55:25 71° NE 07:03:29 10° SE
Cosmos 2322 4.0 06:49:49 10° NNW 06:55:30 73° ENE 07:01:09 10° SE
USA 229 DEB 4.2 06:48:14 10° NW 06:55:30 71° NE 07:03:34 10° SE
